User: anonymous   Login
Location: Unspecified
(0.0000°N, 0.0000°E)
Time: 18:51:53
(UTC+00:00)
Language:

Diademe D-1D - Orbit

View from above orbital plane
View from above orbital plane
View from above satellite
View from above satellite

Ground track
Ground track

The orbit data is extracted from the following two-line orbital elements,

1  2680U 67014A   17145.85953056 -.00000052 +00000-0 +10772-4 0  9992
2  2680 039.4452 004.6473 0719901 323.4425 031.9164 13.37840370432334
Epoch (UTC): 25 May 2017 20:37:43
Eccentricity: 0.0719901
inclination: 39.4452°
perigee height: 578 km
apogee height: 1657 km
right ascension of ascending node: 4.6473°
argument of perigee: 323.4425°
revolutions per day: 13.37840370
mean anomaly at epoch: 31.9164°
orbit number at epoch: 43233

The dashed part of the orbit path shows where the satellite is in the earth's shadow,  

DLR